Orbital Elements at Epoch 2459200.5 (2020-Dec-17.0) TDB
Reference: JPL 15 (heliocentric ecliptic J2000)
Element | Value | Uncertainty (1-sigma) | Units |
e | .218237964535414 | 3.9228e-08 | |
a | 2.36299404126045 | 9.3248e-09 | au |
q | 1.847299031486457 | 9.2101e-08 | au |
i | 4.519519056046225 | 4.7355e-06 | deg |
node | 108.1467510591306 | 5.7534e-05 | deg |
peri | 347.9363875755652 | 5.92e-05 | deg |
M | 105.8944840973141 | 1.1128e-05 | deg |
tp | 2458810.231764648464 (2019-Nov-22.73176465) | 4.1113e-05 | TDB |
period | 1326.759990609526 3.63 | 7.8534e-06 2.15e-08 | d yr |
n | .2713376967559993 | 1.6061e-09 | deg/d |
Q | 2.878689051034443 | 1.136e-08 | au |
|
| | Orbit Determination Parameters
Additional Information
|